N403BG CYCB-PAOR

Flight info

Callsign N403BG
Flight time N/A
Altitude 5500
Route VFR
Aircraft M7/L-SGO/C

Departure

Time N/A
Airport Cambridge Bay Airport (CYCB)

Arrival

Time 2026-04-29 18:39
Airport Northway Airport (PAOR)
Time Latitude Longitude Altitude Speed Heading
2026-04-29 17:05 61.36904 -139.03172 2619 ft 0 kts 213°
2026-04-29 17:10 61.36904 -139.03171 2619 ft 0 kts 213°
2026-04-29 17:13 61.36894 -139.03217 2619 ft 10 kts 239°
2026-04-29 17:14 61.36841 -139.03354 2616 ft 16 kts 279°
2026-04-29 17:14 61.36908 -139.03578 2619 ft 20 kts 305°
2026-04-29 17:14 61.37002 -139.03822 2625 ft 21 kts 307°
2026-04-29 17:14 61.37088 -139.04066 2633 ft 21 kts 304°
2026-04-29 17:15 61.37181 -139.04325 2635 ft 23 kts 307°
2026-04-29 17:15 61.37285 -139.04576 2636 ft 15 kts 326°
2026-04-29 17:15 61.37299 -139.04610 2637 ft 6 kts 130°
2026-04-29 17:15 61.37297 -139.04605 2637 ft 0 kts 130°
2026-04-29 17:16 61.37251 -139.04487 2634 ft 27 kts 125°
2026-04-29 17:16 61.37056 -139.03929 2668 ft 71 kts 134°
2026-04-29 17:16 61.36723 -139.03008 2887 ft 88 kts 129°
2026-04-29 17:16 61.36333 -139.01996 3121 ft 96 kts 128°
2026-04-29 17:17 61.36393 -139.00810 3386 ft 108 kts 27°
2026-04-29 17:17 61.37054 -139.01241 3569 ft 117 kts 306°
2026-04-29 17:17 61.37581 -139.02563 3658 ft 119 kts 310°
2026-04-29 17:17 61.38141 -139.03811 3774 ft 120 kts 312°
2026-04-29 17:18 61.38758 -139.05149 3776 ft 131 kts 310°
2026-04-29 17:18 61.39315 -139.06669 3841 ft 133 kts 301°
2026-04-29 17:18 61.39794 -139.08361 3890 ft 133 kts 296°
2026-04-29 17:18 61.40218 -139.10042 4018 ft 129 kts 293°
2026-04-29 17:19 61.40665 -139.11722 4013 ft 134 kts 299°
2026-04-29 17:19 61.41151 -139.13361 4132 ft 128 kts 300°
2026-04-29 17:19 61.41669 -139.14902 4123 ft 135 kts 304°
2026-04-29 17:19 61.42217 -139.16508 4118 ft 134 kts 302°
2026-04-29 17:20 61.42727 -139.18110 4125 ft 134 kts 301°
2026-04-29 17:20 61.43268 -139.19729 4060 ft 137 kts 304°
2026-04-29 17:20 61.43836 -139.21349 3986 ft 138 kts 305°
2026-04-29 17:20 61.44360 -139.23000 3995 ft 135 kts 298°
2026-04-29 17:21 61.44835 -139.24663 4031 ft 133 kts 299°
2026-04-29 17:21 61.45301 -139.26338 4069 ft 135 kts 295°
2026-04-29 17:21 61.45697 -139.28134 4061 ft 136 kts 291°
2026-04-29 17:21 61.46071 -139.29917 4088 ft 134 kts 290°
2026-04-29 17:22 61.46454 -139.31688 4100 ft 133 kts 293°
2026-04-29 17:22 61.46873 -139.33403 4123 ft 132 kts 295°
2026-04-29 17:22 61.47280 -139.35101 4142 ft 128 kts 294°
2026-04-29 17:22 61.47697 -139.36733 4143 ft 127 kts 301°
2026-04-29 17:23 61.48159 -139.38269 4198 ft 125 kts 302°
2026-04-29 17:23 61.48628 -139.39812 4207 ft 125 kts 302°
2026-04-29 17:23 61.49112 -139.41308 4236 ft 125 kts 304°
2026-04-29 17:23 61.49614 -139.42780 4265 ft 123 kts 305°
2026-04-29 17:24 61.50148 -139.44204 4256 ft 126 kts 308°
2026-04-29 17:24 61.50703 -139.45610 4281 ft 124 kts 309°
2026-04-29 17:24 61.51213 -139.47079 4291 ft 125 kts 302°
2026-04-29 17:24 61.51688 -139.48596 4308 ft 124 kts 303°
2026-04-29 17:25 61.52175 -139.50102 4311 ft 125 kts 304°
2026-04-29 17:25 61.52680 -139.51595 4312 ft 126 kts 306°
2026-04-29 17:25 61.53205 -139.53053 4343 ft 125 kts 308°
2026-04-29 17:25 61.53776 -139.54440 4345 ft 126 kts 313°
2026-04-29 17:26 61.54398 -139.55729 4350 ft 126 kts 315°
2026-04-29 17:26 61.54984 -139.57092 4392 ft 125 kts 308°
2026-04-29 17:26 61.55497 -139.58550 4425 ft 125 kts 304°
2026-04-29 17:26 61.55960 -139.60092 4444 ft 126 kts 299°
2026-04-29 17:27 61.56348 -139.61735 4478 ft 124 kts 294°
2026-04-29 17:27 61.56724 -139.63369 4484 ft 126 kts 297°
2026-04-29 17:27 61.57169 -139.64961 4505 ft 125 kts 302°
2026-04-29 17:27 61.57632 -139.66502 4596 ft 124 kts 300°
2026-04-29 17:28 61.57908 -139.68182 4630 ft 127 kts 270°
2026-04-29 17:28 61.57734 -139.70012 4609 ft 125 kts 256°
2026-04-29 17:28 61.57526 -139.71773 4659 ft 125 kts 254°
2026-04-29 17:28 61.57378 -139.73560 4691 ft 124 kts 262°
2026-04-29 17:29 61.57287 -139.75359 4736 ft 123 kts 263°
2026-04-29 17:29 61.57186 -139.77171 4706 ft 127 kts 260°
2026-04-29 17:29 61.57024 -139.78966 4741 ft 124 kts 256°
2026-04-29 17:29 61.56883 -139.80129 4751 ft 125 kts 254°
2026-04-29 17:30 61.56523 -139.82427 4831 ft 123 kts 249°
2026-04-29 17:30 61.56243 -139.84148 4813 ft 124 kts 252°
2026-04-29 17:30 61.56012 -139.85885 4854 ft 123 kts 255°
2026-04-29 17:30 61.55801 -139.87637 4852 ft 124 kts 255°
2026-04-29 17:31 61.55614 -139.89408 4879 ft 125 kts 259°
2026-04-29 17:31 61.55497 -139.91208 4919 ft 125 kts 263°
2026-04-29 17:31 61.55443 -139.93024 4977 ft 125 kts 267°
2026-04-29 17:31 61.55436 -139.94841 5014 ft 124 kts 270°
2026-04-29 17:32 61.55451 -139.96673 5033 ft 125 kts 267°
2026-04-29 17:32 61.55427 -139.98474 5093 ft 124 kts 272°
2026-04-29 17:32 61.55550 -140.00320 5069 ft 129 kts 281°
2026-04-29 17:32 61.55830 -140.02074 5099 ft 127 kts 294°
2026-04-29 17:33 61.56266 -140.03703 5046 ft 129 kts 303°
2026-04-29 17:33 61.56749 -140.05265 5097 ft 125 kts 298°
2026-04-29 17:33 61.57065 -140.06989 5057 ft 129 kts 287°
2026-04-29 17:33 61.57327 -140.08766 5096 ft 127 kts 285°
2026-04-29 17:34 61.57502 -140.10553 5129 ft 125 kts 276°
2026-04-29 17:34 61.57536 -140.11791 5054 ft 131 kts 269°
2026-04-29 17:34 61.57630 -140.13637 5059 ft 128 kts 295°
2026-04-29 17:34 61.58217 -140.15025 5057 ft 127 kts 308°
2026-04-29 17:35 61.58918 -140.17761 5054 ft 128 kts 297°
2026-04-29 17:35 61.59449 -140.19972 5056 ft 128 kts 296°
2026-04-29 17:35 61.59842 -140.21640 5053 ft 128 kts 295°
2026-04-29 17:36 61.60235 -140.23314 5055 ft 127 kts 295°
2026-04-29 17:36 61.60624 -140.24982 5056 ft 127 kts 295°
2026-04-29 17:36 61.61014 -140.26655 5055 ft 128 kts 295°
2026-04-29 17:36 61.61403 -140.28324 5056 ft 127 kts 295°
2026-04-29 17:37 61.61794 -140.29997 5057 ft 127 kts 295°
2026-04-29 17:37 61.62183 -140.31680 5060 ft 129 kts 295°
2026-04-29 17:37 61.62581 -140.33384 5061 ft 131 kts 295°
2026-04-29 17:37 61.62987 -140.35119 5048 ft 131 kts 295°
2026-04-29 17:38 61.63381 -140.36836 5048 ft 129 kts 295°
2026-04-29 17:38 61.63776 -140.38543 5057 ft 130 kts 295°
2026-04-29 17:38 61.64175 -140.40256 5060 ft 131 kts 295°
2026-04-29 17:38 61.64575 -140.41978 5059 ft 131 kts 295°
2026-04-29 17:39 61.64973 -140.43699 5060 ft 131 kts 295°
2026-04-29 17:39 61.65373 -140.45426 5064 ft 132 kts 295°
2026-04-29 17:39 61.65777 -140.47179 5059 ft 134 kts 295°
2026-04-29 17:39 61.66176 -140.48913 5064 ft 132 kts 295°
2026-04-29 17:40 61.66578 -140.50651 5058 ft 131 kts 295°
2026-04-29 17:40 61.66973 -140.52368 5050 ft 130 kts 295°
2026-04-29 17:40 61.67367 -140.54076 5064 ft 131 kts 295°
2026-04-29 17:40 61.67769 -140.55812 5057 ft 132 kts 295°
2026-04-29 17:41 61.68163 -140.57530 5055 ft 129 kts 295°
2026-04-29 17:41 61.68550 -140.59233 5059 ft 129 kts 295°
2026-04-29 17:41 61.68950 -140.60952 5060 ft 131 kts 295°
2026-04-29 17:41 61.69342 -140.62673 5058 ft 129 kts 295°
2026-04-29 17:42 61.69819 -140.64246 5049 ft 129 kts 319°
2026-04-29 17:42 61.70596 -140.65158 5056 ft 128 kts 332°
2026-04-29 17:42 61.71374 -140.66087 5053 ft 129 kts 330°
2026-04-29 17:42 61.72157 -140.67017 5057 ft 129 kts 330°
2026-04-29 17:43 61.72943 -140.67960 5065 ft 130 kts 330°
2026-04-29 17:43 61.73728 -140.68904 5067 ft 129 kts 330°
2026-04-29 17:43 61.74507 -140.69845 5066 ft 129 kts 330°
2026-04-29 17:43 61.75290 -140.70793 5066 ft 130 kts 330°
2026-04-29 17:44 61.76071 -140.71737 5059 ft 128 kts 330°
2026-04-29 17:44 61.76839 -140.72667 5056 ft 127 kts 330°
2026-04-29 17:44 61.77608 -140.73600 5064 ft 128 kts 330°
2026-04-29 17:44 61.78382 -140.74536 5055 ft 127 kts 330°
2026-04-29 17:45 61.79152 -140.75471 5058 ft 128 kts 330°
2026-04-29 17:45 61.79923 -140.76406 5060 ft 128 kts 330°
2026-04-29 17:45 61.80695 -140.77345 5057 ft 128 kts 329°
2026-04-29 17:45 61.81466 -140.78280 5050 ft 127 kts 330°
2026-04-29 17:46 61.82231 -140.79210 5056 ft 126 kts 330°
2026-04-29 17:46 61.82993 -140.80136 5056 ft 126 kts 330°
2026-04-29 17:46 61.83756 -140.81065 5059 ft 128 kts 330°
2026-04-29 17:46 61.84526 -140.82003 5058 ft 128 kts 330°
2026-04-29 17:47 61.85292 -140.82935 5057 ft 127 kts 330°
2026-04-29 17:47 61.86055 -140.83868 5062 ft 128 kts 330°
2026-04-29 17:47 61.86830 -140.84809 5055 ft 129 kts 330°
2026-04-29 17:47 61.87610 -140.85762 5062 ft 130 kts 330°
2026-04-29 17:48 61.88386 -140.86712 5059 ft 128 kts 330°
2026-04-29 17:48 61.89158 -140.87654 5064 ft 128 kts 330°
2026-04-29 17:48 61.89934 -140.88604 5053 ft 129 kts 330°
2026-04-29 17:48 61.90705 -140.89544 5056 ft 127 kts 330°
2026-04-29 17:49 61.91474 -140.90487 5062 ft 129 kts 330°
2026-04-29 17:49 61.92253 -140.91440 5058 ft 130 kts 330°
2026-04-29 17:49 61.93029 -140.92389 5059 ft 129 kts 330°
2026-04-29 17:49 61.93796 -140.93334 5052 ft 127 kts 330°
2026-04-29 17:50 61.94561 -140.94272 5048 ft 128 kts 330°
2026-04-29 17:50 61.95333 -140.95217 5060 ft 128 kts 329°
2026-04-29 17:50 61.95941 -140.96533 5051 ft 127 kts 292°
2026-04-29 17:50 61.96103 -140.98367 5052 ft 126 kts 279°
2026-04-29 17:51 61.96268 -141.00203 5055 ft 127 kts 280°
2026-04-29 17:51 61.96434 -141.02039 5054 ft 125 kts 280°
2026-04-29 17:51 61.96600 -141.03853 5047 ft 125 kts 280°
2026-04-29 17:51 61.96773 -141.05657 5047 ft 125 kts 281°
2026-04-29 17:52 61.96945 -141.07478 5050 ft 126 kts 280°
2026-04-29 17:52 61.97058 -141.08713 5054 ft 126 kts 281°
2026-04-29 17:52 61.97289 -141.11148 5051 ft 127 kts 281°
2026-04-29 17:52 61.97460 -141.12971 5056 ft 126 kts 280°
2026-04-29 17:53 61.97633 -141.14784 5046 ft 123 kts 281°
2026-04-29 17:53 61.97799 -141.16464 5019 ft 110 kts 281°
2026-04-29 17:53 61.97983 -141.17873 4882 ft 87 kts 301°
2026-04-29 17:53 61.98517 -141.18391 4737 ft 90 kts 343°
2026-04-29 17:54 61.99106 -141.18709 4539 ft 84 kts 354°
2026-04-29 17:54 61.99663 -141.18583 4396 ft 73 kts 10°
2026-04-29 17:54 62.00143 -141.18299 4232 ft 71 kts 22°
2026-04-29 17:54 62.00550 -141.17841 4123 ft 62 kts 38°
2026-04-29 17:55 62.00884 -141.17357 4057 ft 57 kts 40°
2026-04-29 17:55 62.01311 -141.16752 4118 ft 92 kts 31°
2026-04-29 17:55 62.01933 -141.16063 4361 ft 91 kts 356°
2026-04-29 17:55 62.02197 -141.17119 4582 ft 101 kts 246°
2026-04-29 17:56 62.01576 -141.17602 4199 ft 104 kts 171°
2026-04-29 17:56 62.00934 -141.17680 4034 ft 86 kts 207°
2026-04-29 17:56 62.00637 -141.18718 4002 ft 85 kts 249°
2026-04-29 17:56 62.00405 -141.20040 4224 ft 100 kts 252°
2026-04-29 17:57 62.00217 -141.21517 4448 ft 107 kts 255°
2026-04-29 17:57 62.00050 -141.23081 4563 ft 112 kts 259°
2026-04-29 17:57 61.99926 -141.24724 4694 ft 112 kts 264°
2026-04-29 17:57 61.99934 -141.25783 4859 ft 107 kts 277°
2026-04-29 17:58 62.00265 -141.27848 4988 ft 113 kts 289°
2026-04-29 17:58 62.00331 -141.29480 5094 ft 113 kts 259°
2026-04-29 17:58 62.00193 -141.31120 5223 ft 113 kts 260°
2026-04-29 17:58 62.00092 -141.32756 5380 ft 110 kts 262°
2026-04-29 17:59 62.00010 -141.34402 5470 ft 116 kts 265°
2026-04-29 17:59 61.99941 -141.36135 5512 ft 118 kts 263°
2026-04-29 17:59 61.99847 -141.37882 5545 ft 121 kts 264°
2026-04-29 17:59 61.99809 -141.39679 5567 ft 123 kts 270°
2026-04-29 18:00 61.99883 -141.41502 5572 ft 124 kts 277°
2026-04-29 18:00 62.00010 -141.43324 5565 ft 126 kts 278°
2026-04-29 18:00 62.00159 -141.45168 5551 ft 127 kts 280°
2026-04-29 18:00 62.00348 -141.46965 5599 ft 123 kts 282°
2026-04-29 18:01 62.00559 -141.48767 5556 ft 126 kts 283°
2026-04-29 18:01 62.00766 -141.50585 5505 ft 127 kts 281°
2026-04-29 18:01 62.00931 -141.52399 5555 ft 123 kts 278°
2026-04-29 18:01 62.01057 -141.54197 5545 ft 124 kts 276°
2026-04-29 18:02 62.01147 -141.56029 5547 ft 123 kts 274°
2026-04-29 18:02 62.01205 -141.57844 5558 ft 123 kts 273°
2026-04-29 18:02 62.01305 -141.59674 5526 ft 126 kts 277°
2026-04-29 18:02 62.01450 -141.61517 5501 ft 126 kts 280°
2026-04-29 18:03 62.01639 -141.63349 5474 ft 127 kts 281°
2026-04-29 18:03 62.01806 -141.65147 5541 ft 122 kts 279°
2026-04-29 18:03 62.01918 -141.66961 5508 ft 125 kts 274°
2026-04-29 18:03 62.01941 -141.68795 5510 ft 123 kts 267°
2026-04-29 18:04 62.01949 -141.70604 5522 ft 123 kts 276°
2026-04-29 18:04 62.02175 -141.72381 5470 ft 126 kts 291°
2026-04-29 18:04 62.02569 -141.74077 5414 ft 128 kts 297°
2026-04-29 18:04 62.03000 -141.75711 5407 ft 126 kts 299°
2026-04-29 18:05 62.03446 -141.77318 5393 ft 126 kts 298°
2026-04-29 18:05 62.03802 -141.79026 5363 ft 126 kts 285°
2026-04-29 18:05 62.03793 -141.80845 5310 ft 127 kts 251°
2026-04-29 18:05 62.03311 -141.82403 5268 ft 124 kts 229°
2026-04-29 18:06 62.02756 -141.83790 5274 ft 122 kts 231°
2026-04-29 18:06 62.02257 -141.85248 5283 ft 121 kts 236°
2026-04-29 18:06 62.01798 -141.86771 5267 ft 123 kts 238°
2026-04-29 18:06 62.01434 -141.88364 5361 ft 118 kts 257°
2026-04-29 18:07 62.01451 -141.90161 5288 ft 127 kts 274°
2026-04-29 18:07 62.01519 -141.92041 5233 ft 126 kts 274°
2026-04-29 18:07 62.01599 -141.93871 5264 ft 123 kts 274°
2026-04-29 18:07 62.01714 -141.95674 5281 ft 122 kts 283°
2026-04-29 18:08 62.02108 -141.97305 5242 ft 127 kts 308°
2026-04-29 18:08 62.02826 -141.98420 5188 ft 130 kts 335°
2026-04-29 18:08 62.03692 -141.99049 5127 ft 132 kts 341°
2026-04-29 18:08 62.04549 -141.99664 5114 ft 128 kts 341°
2026-04-29 18:09 62.05395 -142.00240 5116 ft 128 kts 342°
2026-04-29 18:09 62.06252 -142.00756 5099 ft 128 kts 343°
2026-04-29 18:09 62.07112 -142.01304 5069 ft 129 kts 341°
2026-04-29 18:09 62.07972 -142.01886 5028 ft 130 kts 343°
2026-04-29 18:10 62.08840 -142.02421 5022 ft 129 kts 343°
2026-04-29 18:10 62.09687 -142.02982 5030 ft 127 kts 341°
2026-04-29 18:10 62.10525 -142.03586 5033 ft 127 kts 340°
2026-04-29 18:10 62.11352 -142.04233 5044 ft 127 kts 339°
2026-04-29 18:11 62.12173 -142.04917 5060 ft 127 kts 338°
2026-04-29 18:11 62.12996 -142.05571 5049 ft 127 kts 340°
2026-04-29 18:11 62.13835 -142.06159 5064 ft 127 kts 343°
2026-04-29 18:11 62.14684 -142.06669 5076 ft 126 kts 345°
2026-04-29 18:12 62.15533 -142.07145 5089 ft 127 kts 346°
2026-04-29 18:12 62.16401 -142.07580 5036 ft 131 kts 347°
2026-04-29 18:12 62.17281 -142.07938 5043 ft 128 kts 351°
2026-04-29 18:12 62.17867 -142.08113 5032 ft 129 kts 353°
2026-04-29 18:13 62.19065 -142.08216 5019 ft 129 kts
2026-04-29 18:13 62.19657 -142.08005 4964 ft 131 kts 16°
2026-04-29 18:13 62.20447 -142.07088 4939 ft 129 kts 40°
2026-04-29 18:13 62.21080 -142.05647 4854 ft 131 kts 50°
2026-04-29 18:14 62.21613 -142.04176 4929 ft 125 kts 54°
2026-04-29 18:14 62.22120 -142.02610 4888 ft 127 kts 57°
2026-04-29 18:14 62.22597 -142.01010 4880 ft 128 kts 58°
2026-04-29 18:14 62.23073 -141.99412 4876 ft 128 kts 57°
2026-04-29 18:15 62.23576 -141.97824 4863 ft 129 kts 56°
2026-04-29 18:15 62.24097 -141.96277 4850 ft 128 kts 55°
2026-04-29 18:15 62.24606 -141.94701 4841 ft 129 kts 57°
2026-04-29 18:15 62.25122 -141.93160 4846 ft 128 kts 53°
2026-04-29 18:16 62.25651 -141.91606 4793 ft 130 kts 57°
2026-04-29 18:16 62.26151 -141.90014 4800 ft 127 kts 55°
2026-04-29 18:16 62.26677 -141.88452 4716 ft 130 kts 57°
2026-04-29 18:16 62.27192 -141.86862 4682 ft 130 kts 55°
2026-04-29 18:17 62.27723 -141.85300 4635 ft 129 kts 54°
2026-04-29 18:17 62.28278 -141.83759 4559 ft 132 kts 50°
2026-04-29 18:17 62.28883 -141.82265 4456 ft 132 kts 48°
2026-04-29 18:17 62.29557 -141.80895 4288 ft 135 kts 41°
2026-04-29 18:18 62.30308 -141.79711 4233 ft 132 kts 34°
2026-04-29 18:18 62.31071 -141.78685 4236 ft 129 kts 33°
2026-04-29 18:18 62.31825 -141.77690 4240 ft 127 kts 33°
2026-04-29 18:18 62.32556 -141.76636 4218 ft 128 kts 34°
2026-04-29 18:19 62.33345 -141.75759 4201 ft 127 kts 20°
2026-04-29 18:19 62.34223 -141.75469 4143 ft 130 kts
2026-04-29 18:19 62.35122 -141.75542 4133 ft 129 kts 356°
2026-04-29 18:19 62.36013 -141.75723 4087 ft 130 kts 353°
2026-04-29 18:20 62.36914 -141.75981 4036 ft 131 kts 352°
2026-04-29 18:20 62.37811 -141.76308 4029 ft 126 kts 350°
2026-04-29 18:20 62.38679 -141.76691 3986 ft 130 kts 349°
2026-04-29 18:20 62.39570 -141.77070 3926 ft 131 kts 351°
2026-04-29 18:21 62.40467 -141.77361 3920 ft 130 kts 353°
2026-04-29 18:21 62.41366 -141.77614 3902 ft 129 kts 353°
2026-04-29 18:21 62.42251 -141.77864 3903 ft 127 kts 352°
2026-04-29 18:21 62.43139 -141.78059 3865 ft 128 kts 356°
2026-04-29 18:22 62.44031 -141.78170 3805 ft 131 kts 357°
2026-04-29 18:22 62.44924 -141.78259 3842 ft 125 kts 358°
2026-04-29 18:22 62.45800 -141.78326 3834 ft 128 kts 359°
2026-04-29 18:22 62.46693 -141.78393 3778 ft 129 kts 358°
2026-04-29 18:23 62.47582 -141.78455 3760 ft 127 kts 358°
2026-04-29 18:23 62.48467 -141.78532 3712 ft 127 kts 359°
2026-04-29 18:23 62.49350 -141.78605 3682 ft 127 kts 357°
2026-04-29 18:23 62.50231 -141.78734 3643 ft 127 kts 355°
2026-04-29 18:24 62.51112 -141.78916 3598 ft 127 kts 356°
2026-04-29 18:24 62.51987 -141.79089 3564 ft 128 kts 355°
2026-04-29 18:24 62.52882 -141.79293 3496 ft 128 kts 354°
2026-04-29 18:24 62.53761 -141.79552 3473 ft 127 kts 351°
2026-04-29 18:25 62.54637 -141.79841 3455 ft 128 kts 353°
2026-04-29 18:25 62.55509 -141.80019 3479 ft 125 kts 357°
2026-04-29 18:25 62.56375 -141.80131 3476 ft 125 kts 358°
2026-04-29 18:25 62.57248 -141.80203 3458 ft 126 kts 359°
2026-04-29 18:26 62.58105 -141.80226 3524 ft 123 kts
2026-04-29 18:26 62.58968 -141.80173 3550 ft 124 kts
2026-04-29 18:26 62.59819 -141.79885 3548 ft 124 kts 13°
2026-04-29 18:26 62.60687 -141.79622 3517 ft 126 kts
2026-04-29 18:27 62.61554 -141.79551 3557 ft 123 kts
2026-04-29 18:27 62.62406 -141.79486 3603 ft 123 kts
2026-04-29 18:27 62.63261 -141.79475 3640 ft 124 kts
2026-04-29 18:27 62.64130 -141.79455 3658 ft 124 kts
2026-04-29 18:28 62.64987 -141.79416 3693 ft 125 kts
2026-04-29 18:28 62.65871 -141.79344 3633 ft 128 kts
2026-04-29 18:28 62.66760 -141.79372 3603 ft 128 kts 357°
2026-04-29 18:28 62.67635 -141.79545 3590 ft 128 kts 352°
2026-04-29 18:29 62.68497 -141.79931 3639 ft 126 kts 345°
2026-04-29 18:29 62.69058 -141.80306 3599 ft 128 kts 343°
2026-04-29 18:29 62.70176 -141.81069 3623 ft 123 kts 343°
2026-04-29 18:29 62.71021 -141.81248 3616 ft 125 kts
2026-04-29 18:30 62.71896 -141.81043 3582 ft 126 kts
2026-04-29 18:30 62.72755 -141.81012 3590 ft 126 kts 354°
2026-04-29 18:30 62.73632 -141.81206 3583 ft 126 kts 354°
2026-04-29 18:30 62.74483 -141.81435 3621 ft 124 kts 351°
2026-04-29 18:31 62.75350 -141.81790 3568 ft 129 kts 347°
2026-04-29 18:31 62.76215 -141.82237 3566 ft 127 kts 346°
2026-04-29 18:31 62.77065 -141.82690 3547 ft 126 kts 346°
2026-04-29 18:31 62.77936 -141.83161 3472 ft 129 kts 346°
2026-04-29 18:32 62.78814 -141.83626 3393 ft 130 kts 346°
2026-04-29 18:32 62.80593 -141.84536 3194 ft 133 kts 346°
2026-04-29 18:32 62.81505 -141.84953 3181 ft 131 kts 349°
2026-04-29 18:33 62.82380 -141.85382 3136 ft 129 kts 348°
2026-04-29 18:33 62.83266 -141.85854 3037 ft 134 kts 346°
2026-04-29 18:33 62.84167 -141.86359 2997 ft 129 kts 346°
2026-04-29 18:33 62.85013 -141.86835 3047 ft 126 kts 346°
2026-04-29 18:34 62.85872 -141.87343 3056 ft 128 kts 346°
2026-04-29 18:34 62.86446 -141.87662 3029 ft 131 kts 347°
2026-04-29 18:34 62.87635 -141.88258 2981 ft 131 kts 349°
2026-04-29 18:34 62.88521 -141.88596 3052 ft 127 kts 352°
2026-04-29 18:35 62.89397 -141.88931 3006 ft 129 kts 349°
2026-04-29 18:35 62.90281 -141.89331 2964 ft 130 kts 348°
2026-04-29 18:35 62.91145 -141.89837 3008 ft 128 kts 346°
2026-04-29 18:35 62.92010 -141.90346 2917 ft 126 kts 345°
2026-04-29 18:36 62.92816 -141.90838 2846 ft 117 kts 345°
2026-04-29 18:36 62.93590 -141.91318 2816 ft 114 kts 345°
2026-04-29 18:36 62.94358 -141.91822 2721 ft 116 kts 343°
2026-04-29 18:36 62.95124 -141.92403 2616 ft 115 kts 339°
2026-04-29 18:37 62.95822 -141.93064 2557 ft 102 kts 335°
2026-04-29 18:37 62.96426 -141.93796 2546 ft 99 kts 330°
2026-04-29 18:37 62.96879 -141.94737 2618 ft 88 kts 279°
2026-04-29 18:37 62.96840 -141.96128 2565 ft 93 kts 262°
2026-04-29 18:38 62.96754 -141.97479 2581 ft 83 kts 259°
2026-04-29 18:38 62.96518 -141.98427 2577 ft 68 kts 194°
2026-04-29 18:38 62.96051 -141.98076 2496 ft 77 kts 145°
2026-04-29 18:38 62.95788 -141.97208 2359 ft 72 kts 101°
2026-04-29 18:39 62.95782 -141.96081 2127 ft 75 kts 86°
2026-04-29 18:39 62.95881 -141.94983 1896 ft 71 kts 77°
2026-04-29 18:39 62.95988 -141.94012 1734 ft 58 kts 78°
2026-04-29 18:39 62.96050 -141.93357 1724 ft 30 kts 81°
2026-04-29 18:40 62.96115 -141.93072 1725 ft 16 kts 14°
2026-04-29 18:40 62.96193 -141.93038 1724 ft 11 kts 42°
2026-04-29 18:40 62.96217 -141.92891 1724 ft 10 kts 81°
2026-04-29 18:40 62.96230 -141.92731 1724 ft 11 kts 72°
2026-04-29 18:41 62.96234 -141.92622 1724 ft 0 kts 158°
2026-04-29 18:41 62.96232 -141.92620 1724 ft 0 kts 158°